Theta_e
344 345 347 348 347 346 345 346 348 350 352 352 353 354 353 352 349 342 334 330 329 330 329 326 324 322 321 321 320 319 318 318 317 317 316 316 316 317 317 319 319 319 319 320 324 327 328 326 325 325 324 324 324 324 325 327 329 330 331 330 329 329 329
344 345 347 347 346 346 346 347 349 351 352 352 353 353 352 352 348 343 335 330 330 330 329 326 324 322 321 321 320 319 319 319 318 317 317 316 316 316 318 321 322 321 320 321 326 332 331 328 326 325 324 324 323 323 323 325 327 328 328 328 328 328 328
344 344 346 346 346 346 347 348 350 352 352 352 352 352 352 350 345 341 335 330 329 330 329 327 324 322 321 321 319 319 319 319 318 317 316 316 316 317 319 322 323 321 319 322 329 333 331 329 327 325 324 324 323 324 324 325 327 328 327 327 327 327 328
343 345 345 346 347 346 347 349 350 352 353 353 352 351 351 350 345 341 336 330 328 329 328 328 324 322 321 320 319 318 318 319 319 318 317 316 317 318 319 320 320 318 319 324 327 328 327 327 325 323 322 322 322 323 325 329 331 331 331 330 328 327 328
344 344 345 347 348 347 348 350 351 352 353 353 353 352 351 350 349 345 339 332 328 327 327 327 324 321 320 319 319 318 319 320 319 318 317 317 317 318 319 318 318 319 322 325 327 327 328 328 326 324 323 322 323 323 324 329 332 333 333 332 330 329 328
345 344 346 347 348 348 349 350 351 352 353 353 353 352 352 352 351 348 342 334 328 328 329 329 326 321 320 319 319 320 320 320 319 319 318 317 318 319 319 318 319 321 325 328 329 330 331 330 328 327 328 327 326 326 324 326 328 330 332 332 332 331 330
346 345 347 347 348 349 349 350 351 352 352 353 354 353 354 354 352 349 344 337 331 329 330 331 327 322 320 319 319 320 320 319 319 319 318 318 319 319 319 319 321 325 328 329 330 331 331 331 329 329 330 329 329 328 327 327 327 327 329 332 333 333 332
346 346 348 348 348 350 349 351 352 353 354 355 356 355 355 354 353 349 345 340 334 331 331 332 327 322 320 319 319 320 320 321 320 319 318 318 318 319 320 322 325 327 329 330 331 331 331 331 331 330 330 330 329 329 329 329 329 328 328 331 333 333 332
344 345 348 348 349 350 350 351 352 353 355 357 357 357 356 355 353 349 345 341 337 333 332 332 328 322 320 321 323 323 324 326 325 320 318 317 318 320 322 325 328 330 331 331 331 330 330 331 330 330 330 330 329 329 330 330 330 329 328 330 332 331 329
343 344 346 348 349 350 351 352 353 353 355 358 358 357 356 354 352 349 346 344 340 335 333 333 330 322 320 326 331 331 331 332 328 322 318 317 318 321 324 327 331 332 332 331 331 330 330 330 330 330 330 329 328 329 330 330 330 329 328 329 330 329 327
344 347 348 348 348 349 350 351 352 353 354 355 356 356 355 354 352 350 348 346 343 338 335 335 330 323 325 333 338 338 338 334 328 322 318 318 320 322 326 330 333 333 333 332 330 329 329 330 330 330 329 329 329 329 330 330 330 329 328 328 329 329 327
343 348 349 349 348 348 348 349 350 351 352 353 354 354 354 353 352 350 349 348 346 342 340 337 331 328 333 338 340 341 338 331 327 324 319 318 321 322 325 329 331 330 330 328 327 327 329 331 330 330 329 328 329 329 330 330 329 329 328 328 330 330 329
341 346 348 349 349 348 348 348 349 349 350 351 352 352 353 353 352 350 349 349 348 344 342 339 336 336 339 339 341 341 334 326 327 327 320 318 320 319 321 323 324 324 323 323 325 326 328 329 328 327 326 326 327 327 328 328 328 328 329 330 331 331 330
342 346 349 351 351 350 350 348 349 349 350 351 352 352 351 352 351 349 347 347 347 344 342 341 339 339 339 338 339 339 332 326 327 325 319 319 320 319 320 320 320 320 321 323 325 326 326 325 324 324 324 324 324 324 325 326 327 329 330 330 331 332 331
345 347 351 355 355 353 352 351 351 351 351 352 352 351 351 350 349 348 346 344 344 343 342 341 340 339 338 337 337 337 335 330 326 321 319 321 320 320 320 320 320 321 322 322 323 323 324 323 323 324 324 324 324 325 326 326 328 330 331 330 331 331 329
349 352 353 356 358 357 354 353 352 352 352 352 351 351 350 349 347 346 345 343 343 343 342 341 340 338 337 335 334 336 337 331 323 321 321 321 321 321 321 321 321 321 321 322 322 322 323 323 323 324 324 325 326 326 326 326 328 329 329 329 329 329 328
345 352 354 354 356 358 356 355 354 352 353 352 351 351 350 348 346 344 344 344 342 341 341 341 340 337 334 334 332 334 335 329 322 321 322 321 322 321 321 321 321 322 322 322 322 322 323 323 323 325 326 327 328 327 326 326 327 328 328 328 328 328 329
336 343 349 350 350 353 354 355 354 353 353 352 351 350 347 346 347 345 345 343 339 339 339 338 338 334 332 334 333 332 331 326 321 321 322 322 322 321 321 321 321 322 322 322 322 322 322 322 323 325 328 329 329 329 327 326 327 327 328 328 328 328 329
339 339 345 350 351 351 351 354 355 355 354 353 351 349 347 346 348 347 345 340 337 336 336 335 334 333 333 336 333 329 327 324 322 322 322 322 322 322 322 321 321 322 322 322 323 323 322 322 323 326 328 330 330 329 327 327 328 327 327 328 328 327 328
340 340 343 348 353 354 353 354 355 355 354 353 352 350 348 348 348 347 343 339 336 336 336 335 333 332 334 335 333 329 326 323 322 323 323 323 323 322 322 322 322 323 323 323 324 324 324 323 323 326 328 330 330 328 327 328 328 328 328 328 327 327 327
337 339 339 342 347 351 353 352 352 351 352 353 352 351 350 350 348 345 341 339 338 337 337 336 334 332 333 335 335 333 327 322 322 323 323 323 323 323 323 323 323 323 323 323 324 325 326 325 324 325 327 329 329 328 327 327 328 328 327 327 327 326 325
336 336 336 336 338 342 347 349 349 349 350 352 353 351 351 350 348 344 341 340 339 338 338 336 334 333 335 336 336 333 327 323 322 323 323 323 323 322 323 324 323 324 324 324 325 326 327 327 326 326 327 329 330 329 328 328 328 328 328 327 326 325 324
335 334 335 337 337 339 342 345 347 348 350 352 352 351 350 349 347 345 342 340 339 339 338 336 334 334 336 337 335 333 331 328 325 323 323 323 323 322 323 323 324 324 325 326 326 327 328 328 328 328 329 329 330 329 329 328 328 328 328 327 326 325 325
335 335 336 339 342 343 346 350 351 351 352 354 353 352 351 350 348 347 345 342 340 340 338 336 334 335 336 335 334 333 333 332 329 327 324 323 323 323 323 323 323 324 326 327 328 328 329 330 330 329 329 329 329 329 328 328 328 328 327 327 326 325 325
336 338 340 342 344 346 352 357 358 356 356 357 355 355 354 352 351 350 348 346 343 341 338 335 335 335 335 335 335 334 333 332 332 330 328 326 326 325 324 324 324 326 327 328 329 330 331 331 331 330 330 329 328 328 328 327 327 327 328 328 327 326 325
338 341 344 344 345 349 354 358 359 360 360 359 357 357 356 354 353 351 350 348 343 339 336 335 334 334 334 335 335 335 334 334 335 335 333 331 330 328 328 327 327 329 330 330 332 332 332 332 332 331 331 329 328 328 328 328 328 327 327 328 327 326 324
340 343 344 343 343 348 353 357 359 360 359 359 358 356 354 353 352 349 348 346 341 337 336 335 335 334 335 336 336 336 336 337 337 338 337 336 335 334 334 333 333 334 334 334 334 333 332 333 332 332 331 330 329 329 328 328 328 327 326 327 327 326 325
341 343 344 341 340 343 349 355 358 359 358 358 356 354 353 352 350 347 345 343 341 339 339 338 338 338 338 339 339 339 340 340 341 340 340 339 338 337 337 337 336 336 335 335 335 333 332 332 332 332 331 330 330 329 329 328 328 327 325 326 326 325 325
341 343 343 339 339 343 349 354 356 356 356 355 354 352 351 350 347 344 343 343 343 342 341 342 343 344 344 344 344 343 342 342 342 341 340 339 338 336 335 334 334 335 334 333 334 333 331 332 332 331 331 331 330 330 329 329 329 327 325 326 326 325 324
344 342 339 339 344 349 352 355 356 352 350 351 351 350 349 347 346 345 344 344 345 344 344 344 343 341 340 341 344 345 345 343 342 341 340 339 337 336 335 333 333 334 333 333 334 331 330 331 332 331 331 330 329 329 330 330 328 326 326 326 326 325 324
343 338 337 344 352 355 355 356 352 347 345 348 349 348 347 345 344 344 344 344 344 341 339 335 330 327 327 329 333 338 340 342 342 341 341 340 338 337 336 335 334 334 334 333 333 331 329 329 330 331 332 329 327 328 330 330 328 326 326 326 326 325 324
341 339 342 351 354 354 354 352 346 341 343 344 345 346 345 343 343 344 342 340 336 332 329 327 325 324 324 326 329 331 333 336 339 341 341 341 340 338 336 335 335 334 333 332 332 331 327 324 326 330 332 329 326 328 330 329 328 326 326 325 325 324 324
341 343 348 351 348 346 346 345 340 339 341 343 343 345 345 344 345 342 336 332 329 327 326 326 327 325 325 327 330 330 330 331 334 337 339 339 338 335 333 333 333 333 333 331 331 330 327 325 326 330 331 329 328 328 329 328 327 327 326 325 325 325 325
341 344 346 345 342 342 342 340 337 336 340 343 344 344 342 341 339 335 331 328 326 325 323 323 325 326 326 327 329 327 326 327 331 333 335 334 333 332 331 331 333 333 333 331 330 329 329 329 330 331 331 329 328 328 328 327 326 327 326 325 325 326 324
341 344 344 341 340 342 341 339 337 336 338 341 342 340 337 335 331 329 327 325 323 322 321 320 322 323 323 324 324 323 324 327 330 332 332 332 332 331 330 330 331 332 332 331 329 328 328 329 330 330 329 329 327 327 327 327 326 325 325 325 326 325 323
340 341 341 339 339 340 339 339 340 338 336 338 338 336 332 328 324 323 323 322 322 322 321 319 319 319 320 320 322 325 328 331 332 332 332 331 331 330 330 330 330 330 330 330 329 329 329 328 329 328 328 328 327 326 327 326 324 324 325 325 325 323 321
339 339 339 338 338 338 337 338 340 338 335 334 333 329 326 324 322 321 322 322 322 321 319 318 318 318 318 319 321 325 329 330 331 331 331 331 331 331 330 330 329 329 328 328 328 328 328 328 328 328 328 328 327 326 325 324 323 322 323 323 322 321 320
339 338 337 336 337 338 338 337 337 334 330 327 325 324 324 324 323 323 323 323 321 319 319 319 319 318 318 319 322 325 327 329 330 331 330 330 331 331 330 330 329 328 328 327 327 328 327 326 326 326 327 327 326 323 322 322 321 321 322 321 320 318 316
Wind_Speed
34 35 39 42 41 41 41 40 40 39 37 35 34 35 34 31 29 27 26 24 22 19 16 13 12 10 9 8 6 5 4 4 5 5 5 6 6 7 7 7 7 7 7 7 6 5 5 5 5 5 5 6 7 7 8 8 9 8 9 9 9 10 10
34 35 38 41 41 40 41 41 41 40 38 36 35 36 35 33 31 28 27 25 23 20 16 13 12 11 10 9 8 6 5 5 6 6 6 6 7 7 6 6 7 7 7 6 4 5 7 7 7 7 7 8 8 8 8 8 8 8 9 9 9 9 9
36 35 37 41 41 41 41 42 41 40 39 37 37 38 37 35 32 29 28 26 24 22 18 14 13 12 11 10 9 7 5 6 6 6 7 7 7 7 6 7 8 8 7 5 5 6 9 10 10 9 9 10 9 9 9 8 8 8 9 10 10 9 9
36 35 37 40 41 41 42 42 42 41 40 39 38 39 38 36 33 30 28 26 25 24 20 16 14 13 12 11 9 7 6 6 7 7 7 7 7 6 7 7 7 8 6 6 6 7 8 10 10 10 11 11 11 10 9 9 9 9 10 11 11 10 9
34 33 34 38 40 40 41 42 42 41 40 40 39 38 38 36 34 32 29 27 26 24 20 16 14 13 13 12 10 8 7 7 8 8 7 7 7 6 7 7 7 6 5 5 6 6 7 8 9 11 13 12 11 10 9 8 9 9 10 10 11 9 8
32 30 31 36 38 38 40 41 41 41 41 41 41 40 38 37 35 33 31 29 27 25 22 18 15 14 14 13 11 9 8 8 8 8 7 7 6 6 6 6 5 4 3 5 5 6 8 9 10 13 14 12 11 11 10 10 9 10 9 9 10 10 9
33 31 31 35 39 39 40 40 40 40 40 40 40 39 38 36 35 34 33 31 29 27 24 20 17 16 15 13 11 10 9 9 8 8 8 7 6 6 5 4 3 2 3 5 6 7 8 10 12 14 13 12 12 13 13 13 13 12 11 10 11 12 12
32 32 31 34 39 39 40 40 40 39 39 39 40 39 38 37 35 35 34 33 31 28 26 22 19 17 15 13 11 11 10 9 8 8 7 6 6 5 4 3 1 0 3 6 8 9 10 10 13 14 13 12 13 14 15 16 16 16 14 11 11 12 12
25 29 32 35 37 38 40 40 39 39 39 39 40 39 38 37 36 36 35 34 32 30 27 24 20 18 16 13 11 11 10 9 9 8 7 6 6 5 3 2 1 3 5 8 9 10 10 11 12 13 12 11 12 14 15 16 17 19 16 12 12 12 13
20 25 32 36 36 35 37 38 38 39 39 39 39 38 38 37 36 36 35 34 33 31 28 25 22 20 17 14 11 12 12 10 9 9 7 6 6 5 4 3 4 6 8 9 8 9 10 10 10 10 10 11 12 13 15 16 17 20 18 13 12 13 13
17 23 29 36 37 34 34 37 39 40 40 40 40 39 37 37 37 36 34 33 31 30 28 26 24 21 18 14 12 13 12 9 8 9 8 7 6 5 4 4 6 9 11 11 12 12 12 11 12 12 11 11 12 12 13 14 17 20 19 14 11 11 11
16 23 29 33 35 35 35 37 40 41 42 42 41 40 39 37 37 35 33 31 29 28 27 26 24 21 18 14 13 15 12 8 10 11 8 6 5 4 5 7 10 13 14 15 16 16 14 14 15 13 12 11 12 12 14 16 19 20 18 14 12 10 10
17 20 24 27 31 36 38 38 40 41 41 42 41 40 40 39 38 35 32 31 29 27 26 25 24 22 17 14 16 18 13 8 11 12 8 5 5 5 6 7 9 11 12 13 13 13 14 16 15 14 13 14 14 15 17 18 19 16 14 15 14 11 11
18 19 20 22 27 35 39 40 41 41 41 40 39 39 40 40 39 36 33 32 30 28 25 25 26 22 18 17 19 21 16 10 10 11 8 6 7 7 6 7 8 10 10 11 11 11 12 13 12 13 13 14 14 13 14 14 12 11 12 14 13 11 11
21 21 21 22 24 31 37 40 40 40 40 39 38 38 39 39 39 36 33 33 31 30 28 28 27 24 21 20 20 20 17 12 10 10 9 8 9 8 8 8 8 9 9 9 9 9 10 10 11 12 13 12 12 12 11 10 9 10 13 13 11 11 12
24 24 24 24 24 28 34 37 39 39 39 39 38 37 38 38 37 35 33 34 35 33 32 32 31 26 23 19 16 18 19 15 14 12 10 10 10 9 9 9 9 8 8 8 9 9 9 10 11 11 11 12 12 12 10 9 9 10 11 10 10 10 11
19 24 26 26 25 27 31 35 38 39 38 38 38 37 37 37 35 33 34 36 38 36 34 35 33 27 24 15 12 18 24 20 17 15 12 12 12 11 11 11 10 9 9 9 9 8 9 10 11 10 11 12 13 12 11 10 9 10 10 9 8 9 10
10 15 22 27 27 26 30 34 35 36 37 37 36 37 37 36 35 36 38 39 38 34 32 33 29 25 23 17 16 21 28 23 19 18 15 14 14 13 13 13 12 12 11 10 9 9 10 10 10 10 11 12 13 14 12 10 9 9 9 10 10 10 11
3 5 11 23 29 27 28 32 33 34 34 34 35 36 37 38 38 40 41 40 36 32 31 29 25 24 24 22 20 24 28 23 20 19 17 16 16 14 15 15 14 14 13 11 10 10 10 10 10 10 10 12 15 15 11 9 9 10 11 12 13 13 13
6 6 6 12 23 28 28 29 30 30 30 31 34 36 37 39 41 42 42 40 38 36 35 33 30 28 27 26 23 26 27 23 21 20 18 18 17 16 17 17 15 15 14 13 12 12 11 11 12 11 11 13 15 14 10 9 11 12 13 15 15 15 15
9 11 9 9 15 23 27 27 27 27 28 30 33 36 38 40 42 42 41 41 41 41 40 38 35 31 29 28 25 26 26 24 23 21 20 20 19 19 19 18 17 16 15 13 13 13 12 12 13 13 12 13 13 12 10 11 14 16 17 17 17 17 16
11 12 13 12 13 17 22 25 26 26 28 31 33 36 39 40 41 41 40 40 40 39 39 39 36 31 29 28 27 27 27 26 24 23 23 22 22 22 21 20 19 17 16 14 14 13 13 13 13 12 11 11 11 11 12 14 16 17 18 18 19 18 16
11 11 13 12 13 15 17 23 26 27 29 31 34 37 39 39 39 38 38 38 37 37 37 36 32 30 30 29 28 27 27 26 26 26 25 25 25 24 24 23 21 18 17 16 15 14 14 14 13 12 11 11 12 13 14 15 16 18 19 18 18 17 16
7 10 12 12 13 14 15 21 26 27 28 31 34 36 37 37 36 35 36 37 37 36 34 33 31 31 31 29 28 27 27 27 27 27 27 28 28 27 26 25 23 21 19 17 16 15 15 14 14 13 12 13 14 15 15 15 17 19 19 17 16 17 16
5 8 11 11 12 13 15 20 23 24 27 32 34 35 35 34 32 32 33 35 36 35 32 32 32 31 30 29 28 28 28 28 28 28 29 29 29 29 28 27 25 23 20 19 17 15 15 15 14 14 14 14 14 14 15 16 18 20 18 17 17 17 15
7 11 13 11 11 13 15 19 21 23 27 31 32 33 32 31 29 28 29 31 33 33 31 30 29 29 29 29 30 29 29 29 29 29 29 30 31 31 30 28 27 25 22 20 18 17 17 16 16 17 17 16 15 15 16 17 19 19 18 17 17 16 14
11 13 13 10 10 13 15 18 21 23 25 29 31 31 30 29 27 25 26 30 33 31 28 26 25 25 27 27 28 28 28 28 29 30 31 31 31 29 29 28 27 26 24 21 19 19 18 17 17 19 18 18 18 18 19 20 20 20 19 18 17 15 14
13 14 13 10 11 12 14 18 20 22 25 28 30 30 28 28 24 21 23 28 30 27 23 22 21 22 23 24 24 25 25 25 27 29 31 31 29 25 25 25 25 25 23 21 21 21 21 19 19 20 21 21 21 21 21 22 21 21 19 18 17 15 14
14 16 14 12 13 11 13 17 19 20 23 29 31 29 27 25 22 22 25 25 24 22 21 18 15 13 14 16 18 20 22 24 27 29 31 31 29 27 26 26 26 25 22 20 21 22 22 21 22 23 24 24 24 23 22 22 22 21 18 17 17 16 14
15 16 14 13 14 13 16 20 20 17 18 24 29 28 26 26 26 25 26 24 22 22 21 17 12 9 9 11 13 15 17 21 25 29 30 29 29 27 24 24 26 25 24 23 24 23 22 23 25 25 25 25 24 23 22 22 21 20 18 17 17 16 14
15 14 14 15 16 17 19 19 19 17 15 17 24 28 26 27 28 25 24 22 20 17 14 11 8 7 7 8 9 11 13 16 21 24 26 27 28 25 22 23 24 25 24 26 27 26 25 25 27 27 26 25 24 22 21 21 20 19 18 18 17 16 14
14 14 16 17 17 18 17 15 18 21 17 13 18 25 26 25 24 21 19 17 12 7 3 2 4 7 10 10 10 11 13 15 19 21 23 25 26 25 24 25 26 26 26 26 26 26 24 23 25 27 26 24 23 22 20 19 19 20 20 19 18 16 15
15 16 18 19 16 15 17 18 21 23 18 12 13 20 22 19 17 15 12 8 6 5 3 5 7 10 12 12 12 13 15 16 18 19 20 22 22 22 20 20 22 24 25 23 22 23 23 23 23 25 25 24 22 20 18 17 18 20 20 20 18 16 15
18 18 19 19 17 16 19 22 24 25 20 13 12 17 18 15 13 11 9 8 7 3 7 9 9 10 12 13 14 15 16 16 15 16 16 17 17 17 16 16 17 20 21 20 19 21 23 22 22 24 25 24 21 18 17 18 18 19 20 20 18 16 16
18 19 20 19 18 19 21 23 25 28 26 19 15 17 18 14 12 10 8 5 1 10 14 11 10 11 12 13 14 15 14 13 13 14 13 13 14 14 14 15 16 17 19 19 18 19 21 21 22 23 23 23 22 21 22 22 21 19 19 19 18 17 18
17 20 21 19 18 20 22 22 23 25 26 22 16 14 13 12 9 7 4 6 12 15 13 9 9 10 10 10 10 9 9 10 12 12 12 13 14 13 13 14 15 16 16 16 16 17 19 20 22 22 21 22 24 25 24 23 21 18 17 18 18 17 17
13 16 19 19 17 17 20 21 20 18 18 18 15 12 11 10 8 8 9 13 16 14 10 8 8 7 7 6 5 6 9 11 13 13 13 14 14 13 12 11 12 13 14 15 16 17 17 18 19 20 20 20 22 20 18 17 17 16 16 17 16 14 13
10 12 13 15 16 17 18 19 17 15 15 16 14 11 9 10 12 14 15 17 16 11 8 6 5 5 5 4 4 7 11 12 13 14 14 13 13 13 11 9 10 11 12 14 15 15 15 16 17 17 18 18 16 14 12 12 13 13 13 13 11 9 10
Wind_Direction
183 183 183 185 185 186 188 189 188 189 191 195 198 202 205 208 206 198 195 199 203 204 201 195 198 205 212 221 232 241 249 269 285 297 309 312 306 296 289 288 299 316 318 308 310 321 314 308 310 312 324 335 334 333 335 334 332 329 327 327 335 341 340
185 184 183 184 185 186 188 189 189 190 194 197 200 203 207 210 209 202 198 201 206 208 205 200 202 209 213 218 227 237 247 264 283 298 304 305 297 291 290 294 305 310 301 297 311 321 311 308 312 319 329 332 331 334 333 326 322 321 323 328 331 333 333
188 186 184 184 185 186 188 188 191 193 196 199 201 204 209 213 213 208 201 202 207 209 207 204 207 211 212 218 226 235 246 261 281 295 299 299 294 293 296 293 293 294 292 297 305 302 301 307 316 325 332 335 337 336 332 330 327 324 327 330 328 326 327
188 187 187 187 186 187 189 189 191 194 197 201 203 207 211 214 215 212 206 205 208 209 208 207 211 212 212 218 227 235 246 260 273 283 290 293 292 290 288 284 288 295 303 316 317 308 307 313 321 328 333 338 339 335 330 328 324 321 319 317 319 323 323
185 185 187 187 185 186 188 189 191 194 197 200 203 207 212 214 214 213 210 208 210 212 210 209 213 214 213 218 224 231 242 255 265 274 281 284 283 282 283 288 293 298 316 343 344 336 329 325 329 335 338 340 341 338 330 318 308 306 307 307 311 316 318
175 179 186 185 184 186 187 189 193 195 198 200 202 206 210 211 213 214 212 210 210 212 211 211 215 216 214 217 221 225 235 248 258 267 273 275 274 275 278 282 285 295 333 346 341 338 334 333 338 341 341 343 346 346 341 330 316 305 299 301 307 311 316
175 179 184 185 185 187 189 191 194 196 199 200 201 204 208 210 212 214 213 212 211 212 211 211 216 217 216 216 219 222 231 244 252 258 264 265 267 272 276 277 273 287 326 322 317 319 320 323 333 337 338 341 342 339 338 338 336 324 306 296 301 307 311
185 188 185 186 188 188 190 192 194 196 198 199 201 203 206 208 210 211 213 213 213 212 211 213 218 219 215 211 215 221 228 239 245 247 251 257 263 275 284 276 237 61 327 315 308 306 307 310 319 325 327 333 332 327 326 329 332 330 318 297 294 300 301
188 194 195 194 192 190 192 194 196 198 199 200 202 203 205 207 208 209 211 212 213 213 211 213 219 221 213 205 209 219 227 240 249 248 249 257 263 273 281 285 36 16 315 300 297 300 303 304 310 315 317 321 322 319 319 321 322 324 321 304 293 296 298
183 192 198 199 196 194 195 196 196 198 200 201 201 203 205 207 206 205 209 211 212 213 212 212 218 221 210 199 206 219 227 241 252 252 257 261 261 265 274 304 340 317 290 282 282 286 287 288 293 300 303 308 314 315 315 313 311 315 318 309 298 300 302
179 187 194 200 201 198 196 197 199 201 202 202 201 203 205 207 205 202 205 210 211 212 213 212 215 217 207 200 213 222 227 245 255 251 252 250 250 256 255 267 277 269 262 260 263 266 266 271 277 282 290 299 306 308 306 303 301 306 312 312 305 304 306
175 180 185 194 201 201 199 200 202 205 208 206 205 206 206 206 203 198 201 208 209 210 212 211 212 214 208 209 220 221 225 254 256 246 242 239 247 261 252 247 248 249 251 256 262 265 267 272 277 278 282 287 290 290 289 289 293 300 307 313 314 308 305
178 180 183 191 198 199 200 201 203 207 210 209 208 208 208 207 203 197 197 203 207 208 209 208 211 211 207 216 225 224 230 250 245 242 246 244 253 264 261 259 258 260 265 267 269 270 269 271 273 273 276 280 281 280 279 281 287 295 303 309 314 313 309
182 184 186 191 195 197 198 201 205 208 209 210 210 210 211 210 208 204 199 198 203 207 207 208 209 205 202 214 223 228 236 239 232 239 246 242 247 250 252 263 267 270 271 270 270 268 268 272 276 279 285 288 289 289 286 286 290 296 301 303 307 312 314
184 187 187 189 194 198 201 204 208 210 211 212 211 211 212 212 211 210 204 200 203 207 208 207 204 199 199 210 223 231 236 236 231 233 230 229 239 241 243 256 263 267 270 271 273 274 277 285 287 289 294 299 306 308 302 297 296 296 298 299 303 308 313
184 187 190 193 197 202 205 209 212 213 212 212 211 212 215 213 212 210 206 206 207 207 208 205 199 195 195 205 228 234 231 236 238 231 225 228 234 236 241 249 254 263 274 280 284 286 286 288 287 289 296 304 310 311 306 304 305 303 306 309 311 313 315
189 191 194 198 200 200 203 208 212 213 213 213 214 213 214 213 212 208 204 205 205 203 201 198 194 191 193 211 252 238 229 236 238 229 228 232 233 234 239 244 249 257 268 274 281 285 284 287 289 291 296 301 306 310 311 312 312 313 317 322 322 318 311
216 211 206 205 204 202 203 205 209 213 214 215 214 212 210 208 205 201 201 202 199 193 186 185 187 193 205 239 269 238 227 234 232 227 230 233 234 238 241 245 250 256 262 267 273 278 281 288 294 293 293 295 301 307 308 306 309 312 312 310 310 308 300
239 246 217 209 208 209 210 208 209 215 217 216 214 212 210 205 200 199 200 197 190 184 180 184 197 209 224 254 261 229 224 230 226 225 231 232 235 240 241 245 249 253 260 264 266 270 278 289 291 287 286 288 292 298 300 302 306 303 297 297 299 301 297
246 265 256 219 211 212 215 213 211 215 220 219 215 211 208 205 202 200 199 195 192 193 195 201 211 219 234 255 248 223 223 229 225 227 234 235 237 238 240 244 247 251 258 261 262 266 272 280 282 279 280 283 288 290 291 294 293 288 290 295 298 300 297
248 251 256 249 226 219 220 219 216 214 218 217 211 205 202 201 201 199 198 199 202 204 208 212 218 227 241 249 238 226 229 232 231 233 237 238 239 238 240 244 244 247 253 255 261 266 269 273 276 274 275 281 289 291 287 286 284 285 291 295 297 300 299
249 250 254 255 247 236 231 229 223 215 212 211 205 201 201 201 200 199 201 204 208 211 215 217 223 234 242 239 233 232 235 236 237 241 243 244 243 240 242 245 245 247 249 251 256 262 266 271 273 274 278 285 293 292 287 285 284 285 291 295 298 302 302
240 252 253 243 240 247 247 238 226 214 210 208 202 201 203 202 200 201 204 207 210 215 218 220 226 236 237 235 236 239 241 242 244 246 247 248 246 245 247 246 245 246 245 246 252 257 263 271 273 274 277 279 283 283 281 282 282 285 292 297 302 306 306
232 252 240 223 228 240 238 226 217 212 210 204 200 203 206 204 203 207 209 210 213 217 219 222 230 234 233 235 241 246 249 251 251 252 252 252 252 252 252 249 247 246 245 246 249 253 260 268 271 273 274 274 275 275 276 280 282 286 293 301 307 310 309
238 235 216 215 231 234 219 209 206 207 206 200 198 204 207 205 207 211 214 216 218 219 220 225 230 231 232 238 244 249 253 256 257 258 257 257 258 257 254 253 250 247 245 246 249 252 258 263 264 267 271 274 272 268 267 271 277 285 293 300 305 309 310
212 206 201 211 230 229 215 205 200 200 200 199 200 204 204 203 204 208 213 216 216 215 219 226 231 233 235 240 245 250 256 259 259 259 260 262 263 260 258 257 254 249 248 248 249 251 254 256 258 261 267 270 265 257 256 261 271 282 289 293 300 306 307
190 198 201 209 223 225 220 211 205 201 197 196 198 201 200 197 198 203 210 211 210 212 220 228 233 236 239 244 250 255 260 263 265 268 269 266 263 259 256 254 251 248 247 249 253 255 253 251 251 254 257 258 256 255 256 261 272 282 284 287 296 302 302
185 191 197 212 220 225 225 216 208 202 195 192 195 196 194 194 195 198 202 205 207 212 222 228 232 237 243 249 256 260 264 271 274 273 266 257 252 252 254 254 252 250 249 253 258 258 252 245 245 249 253 256 259 262 262 265 275 283 282 285 294 299 300
195 192 198 213 214 216 218 208 201 195 188 186 187 188 189 192 194 191 192 198 204 208 213 218 224 235 246 254 261 267 271 274 271 262 257 255 255 256 260 261 259 259 261 261 258 255 251 248 248 252 257 261 265 266 266 269 277 280 279 283 292 297 297
193 189 190 199 203 204 200 195 192 192 189 185 184 185 188 189 186 183 184 189 194 198 203 209 217 233 250 256 264 273 276 273 263 258 260 264 261 260 265 266 263 262 264 263 260 259 259 260 261 260 259 264 271 272 271 273 275 274 275 280 287 292 293
182 183 182 183 188 192 192 190 190 195 203 195 182 179 182 182 179 179 183 188 193 198 205 215 229 253 272 272 271 277 278 274 268 266 269 270 269 272 279 280 274 269 268 269 269 267 264 268 273 270 265 271 281 281 274 273 274 272 271 274 279 285 289
183 182 180 179 181 188 193 191 182 185 201 211 186 174 172 177 183 186 189 192 195 191 191 267 300 307 311 307 298 293 288 281 277 276 277 279 284 290 293 291 286 280 278 279 277 271 269 273 276 273 271 278 286 283 275 275 276 272 269 271 276 283 287
183 176 176 180 186 195 197 189 177 176 190 212 194 172 166 170 180 183 179 168 143 111 53 339 313 306 305 302 298 298 297 291 286 284 284 286 291 297 300 300 294 283 279 280 275 269 272 277 275 273 276 282 286 282 276 272 269 267 269 274 278 282 288
185 180 179 184 190 194 191 184 176 172 175 180 169 161 159 155 152 152 151 142 129 66 338 315 298 293 295 294 294 297 298 299 298 298 296 293 295 299 302 302 295 283 277 278 276 275 278 278 273 273 277 281 282 278 269 263 262 264 270 274 273 276 286
183 182 183 186 187 185 180 172 164 165 168 166 152 148 148 142 143 157 165 160 328 326 319 303 282 279 281 282 287 293 298 302 303 303 300 296 298 301 301 297 292 284 279 281 283 284 284 279 273 273 276 276 274 268 259 256 258 261 263 261 261 270 284
184 186 189 189 184 178 173 165 157 159 164 165 165 164 158 157 174 197 230 293 302 301 293 271 259 265 268 272 278 282 287 290 292 295 296 294 295 295 291 285 281 279 280 285 286 283 282 279 276 275 275 274 272 269 263 258 257 255 250 248 254 268 283
188 185 185 184 178 173 171 169 166 166 170 177 191 198 189 190 220 258 282 284 279 270 255 248 259 272 280 284 280 269 269 274 279 285 289 292 295 292 282 273 271 274 281 286 285 281 279 277 276 276 277 275 272 266 256 247 244 243 243 247 256 269 282
201 194 192 194 192 185 178 176 178 184 189 189 191 198 214 241 262 267 263 260 257 251 246 258 281 300 302 294 273 265 267 271 279 286 290 295 298 294 283 272 269 276 282 282 281 280 277 275 276 276 275 275 273 265 251 242 243 246 249 253 259 270 280